Location: *
(44.9308°N, 123.0197°W)
Time: 04:42:57
(UTC+00:00)

USA 234 - Pass Details

Date: 09 April 2020
Orbit: 1102 x 1106 km, 123.0° (Epoch: 14 May)

Event Time Altitude Azimuth Distance (km) Brightness Sun altitude
Rises 12:20:02 0° 125° (SE) 3,909 6.6 -13.7°
Reaches altitude 10° 12:22:30 10° 126° (SE) 2,953 5.9 -13.3°
Maximum altitude 12:29:02 88° 38° (NE) 1,108 3.3 -12.2°
Drops below altitude 10° 12:35:36 10° 310° (NW) 2,965 5.3 -11.2°
Sets 12:38:05 0° 310° (NW) 3,925 5.9 -10.8°
